Temperature
25 24 23 23 22 21 23 24 25 24 24 24 23 23 22 21 20 19 19 19 20 20 19 19 19 19 19 19 19 19 18 18 18 18 18 18 18 18 18 18 18 18 18 18 18 18 18 18 18
25 24 24 23 22 21 23 24 24 25 24 24 23 23 22 21 20 19 19 19 20 20 19 19 19 19 19 19 18 18 18 18 18 18 18 18 18 18 18 18 18 18 18 18 18 18 18 18 18
25 24 24 22 22 22 24 25 25 25 25 24 23 23 22 21 20 19 20 20 20 20 20 19 19 19 19 19 19 19 19 18 18 18 18 18 18 18 18 18 18 18 18 18 18 18 18 18 18
25 24 24 22 24 25 25 25 26 25 24 24 23 22 22 21 21 20 20 20 20 20 20 20 19 19 19 19 19 19 18 18 18 18 18 18 18 18 18 18 18 18 18 18 18 18 18 18 18
26 25 23 23 25 26 26 26 26 25 24 23 22 21 21 21 21 20 20 20 20 20 20 19 19 19 19 19 19 18 18 18 18 18 18 18 18 18 18 18 18 18 18 18 18 18 18 18 18
26 24 23 23 25 26 26 26 25 24 23 23 22 21 21 21 20 20 20 20 20 20 20 20 19 19 19 19 19 18 18 19 18 18 18 18 18 18 18 18 18 18 18 18 18 18 18 18 18
26 24 24 25 25 26 26 26 25 24 24 23 22 21 21 21 21 20 20 20 20 20 20 20 19 19 19 19 19 18 18 18 18 18 18 18 18 18 18 18 18 18 18 18 18 18 18 18 18
28 24 25 25 25 26 27 27 26 25 24 23 23 21 21 21 21 21 20 20 20 20 20 19 19 19 19 19 19 19 18 18 18 18 18 18 18 18 18 18 18 18 18 18 18 18 18 18 18
29 25 24 25 26 26 27 26 26 25 24 24 23 22 22 21 21 21 20 20 20 19 19 19 19 19 19 19 19 19 18 18 18 18 18 18 18 18 18 18 18 18 18 18 18 18 18 18 18
28 25 26 27 27 27 27 26 26 25 24 23 23 22 22 22 21 21 20 20 20 19 19 19 19 19 19 19 19 19 18 18 18 18 18 18 18 18 18 18 18 18 18 18 18 18 18 18 18
28 26 28 28 28 28 27 26 26 24 23 23 22 22 22 22 21 21 20 20 20 19 19 19 19 19 19 19 19 19 18 18 18 18 18 18 18 18 18 18 18 18 18 18 18 18 18 18 18
29 29 29 29 29 28 27 27 26 25 24 24 23 23 22 22 21 21 21 20 20 20 20 19 19 19 19 19 19 18 18 18 18 18 18 18 18 18 18 18 18 18 18 18 18 18 18 18 18
29 29 29 29 29 28 28 27 26 25 24 24 23 23 22 22 21 21 21 20 20 20 20 19 19 19 19 19 19 18 18 18 18 18 18 18 18 18 18 18 18 18 18 18 18 18 18 18 18
29 29 29 29 28 28 27 26 26 25 24 24 23 23 22 22 22 21 21 21 20 20 20 19 19 19 19 19 19 18 18 18 18 18 18 18 18 18 18 18 18 18 18 18 18 18 18 18 18
30 28 28 28 28 28 27 25 25 25 24 24 23 23 23 22 22 22 21 21 21 20 20 20 19 19 19 19 19 19 19 18 18 18 18 18 18 18 18 18 18 18 18 18 18 18 18 18 18
28 26 26 27 28 27 26 24 25 25 24 23 23 23 22 22 22 22 21 21 21 20 20 20 20 19 19 19 19 19 18 18 18 18 18 18 18 18 18 18 18 18 18 18 18 18 18 18 18
26 25 26 27 28 27 25 24 25 25 24 23 23 23 22 22 22 22 21 21 21 20 20 20 20 19 19 19 19 19 18 18 18 18 18 18 18 18 18 18 18 18 18 18 18 18 18 18 18
25 26 26 27 27 27 25 24 25 25 24 24 23 23 22 22 22 22 22 21 21 21 20 20 20 19 19 19 19 19 18 18 18 18 18 18 18 18 18 18 18 18 18 18 18 18 18 18 18
27 27 27 27 28 26 25 24 25 25 25 24 23 23 22 22 22 22 22 21 21 21 20 20 20 20 19 19 19 19 19 18 18 18 18 18 18 18 18 18 18 18 18 18 18 18 18 18 18
28 27 27 27 28 26 25 25 25 25 24 24 23 23 23 22 22 22 22 22 21 21 21 20 20 20 20 19 19 19 19 18 18 18 18 18 18 18 18 18 18 18 18 18 18 18 18 18 18
28 27 27 27 27 26 25 24 24 24 25 25 24 23 23 23 22 22 22 22 21 21 21 21 20 20 20 19 19 19 18 18 18 18 18 18 18 18 18 18 18 18 18 18 18 18 18 18 17
27 28 29 28 26 24 25 23 23 23 24 24 24 23 23 23 23 23 22 22 22 21 21 21 20 20 20 19 19 19 18 18 18 18 18 18 18 18 18 18 18 18 18 18 18 18 17 17 17
28 29 28 28 26 24 24 23 23 22 23 23 24 24 24 24 23 23 23 22 22 22 21 21 20 20 20 19 19 19 18 19 18 18 18 18 18 18 18 18 18 18 18 18 18 17 17 17 17
30 28 26 24 23 23 24 23 23 22 23 23 24 24 24 24 23 23 23 22 22 21 21 21 20 20 20 19 19 19 19 19 18 18 18 18 18 18 18 18 18 18 17 17 17 17 17 17 17
28 24 23 24 22 23 23 23 22 24 24 24 24 24 24 24 23 23 23 22 22 21 21 21 20 20 20 19 19 19 19 18 18 18 18 18 18 18 18 18 17 17 17 17 17 17 17 17 17
27 24 23 24 23 22 23 23 23 24 24 25 25 24 24 23 23 23 23 22 22 22 21 21 20 20 20 19 19 19 18 18 18 18 18 18 18 18 18 18 17 17 17 17 17 17 17 17 17
28 25 23 22 22 22 22 23 23 24 24 24 24 23 23 23 23 23 23 22 22 22 21 21 20 20 20 19 19 19 18 18 18 18 18 18 18 18 17 17 17 17 17 17 17 17 17 17 17
28 26 22 22 22 22 23 22 21 23 23 23 23 23 23 23 23 23 22 22 22 21 21 21 20 20 20 19 19 19 18 18 18 18 18 18 17 17 17 17 17 17 17 17 17 17 17 16 16
28 26 22 20 21 21 22 22 23 22 23 22 22 23 23 23 23 23 22 22 22 21 21 21 20 20 20 19 19 19 18 18 18 18 18 18 17 17 17 17 17 17 17 17 17 17 16 16 16
27 26 23 23 22 20 21 22 24 23 23 23 23 23 23 23 23 23 22 22 22 21 21 21 21 20 20 20 19 19 18 18 18 18 17 17 17 17 17 17 17 17 17 17 16 16 16 16 16
Wind_Speed
13 10 5 2 3 5 7 7 9 10 8 10 13 12 11 9 7 7 3 9 11 9 9 12 13 13 14 14 14 13 13 13 13 13 14 14 15 15 15 16 16 16 17 17 17 17 16 16 17
9 6 2 2 5 5 5 7 12 13 12 13 14 15 12 9 9 10 6 10 11 10 10 12 13 13 13 14 13 13 12 13 13 13 13 13 13 14 14 15 15 15 15 16 16 15 15 15 15
7 4 2 4 4 5 6 8 12 13 12 11 8 8 7 6 8 7 9 13 10 9 10 12 13 13 13 13 13 12 12 12 12 12 13 13 13 13 13 14 15 14 14 14 14 14 13 14 13
4 2 3 5 6 5 9 9 13 14 11 10 10 8 5 6 6 10 15 14 12 8 10 12 13 13 13 12 12 11 11 10 11 12 13 13 13 13 13 13 14 14 13 13 13 12 12 12 13
2 4 5 4 5 7 10 12 12 12 7 11 12 10 6 5 12 17 16 14 12 8 9 12 13 13 12 12 11 11 11 11 12 13 13 12 12 12 12 12 12 12 12 12 11 11 11 11 11
3 4 5 5 7 8 8 12 15 16 15 13 12 10 4 8 12 14 14 12 11 10 9 11 13 13 12 11 11 11 11 12 12 13 13 12 12 12 12 12 12 11 11 11 10 10 9 9 8
4 3 5 7 8 8 8 10 13 13 12 8 9 7 4 6 11 14 13 12 10 10 8 7 9 11 12 12 11 11 11 12 12 13 12 11 12 11 11 11 11 11 10 10 10 9 8 7 6
5 5 5 6 9 7 8 8 10 13 10 12 8 7 6 7 11 13 12 10 10 8 7 6 7 8 9 10 10 10 11 11 12 11 11 11 11 10 10 10 10 10 10 9 9 8 7 6 6
4 5 6 7 8 7 10 13 9 9 11 7 6 8 11 13 14 13 10 8 8 8 6 6 5 5 6 8 9 9 10 10 10 9 10 9 7 7 7 8 9 8 8 8 8 7 6 4 4
6 7 8 7 9 10 12 14 10 9 12 10 11 11 12 12 13 12 11 9 7 7 7 6 6 6 6 6 7 6 6 7 7 7 7 7 6 6 6 8 8 7 7 7 6 6 4 3 2
6 9 8 9 11 12 12 11 8 12 10 13 15 15 12 11 11 11 9 9 8 8 7 7 7 7 6 4 6 4 4 5 6 6 7 6 5 5 5 5 5 5 5 4 4 4 4 4 3
8 9 10 9 11 12 12 10 9 9 11 14 14 13 12 12 10 10 9 8 7 7 6 6 6 6 5 6 5 5 4 4 4 5 7 7 4 4 4 3 4 4 4 3 3 3 4 4 5
8 6 8 10 12 12 13 11 10 10 14 14 14 13 11 11 10 9 9 8 7 7 6 5 6 6 5 5 4 5 4 4 4 5 7 7 5 4 4 3 4 4 4 4 3 4 3 3 4
5 6 7 9 10 11 14 11 9 11 14 14 13 11 11 10 10 9 9 7 7 7 6 5 5 5 5 4 3 4 4 5 5 5 7 8 6 4 3 3 2 3 4 5 4 3 2 2 2
6 7 5 5 7 8 12 7 9 13 14 13 12 11 11 10 10 11 10 9 8 7 6 5 5 4 4 4 3 4 4 5 3 4 6 7 6 5 4 3 3 3 4 4 3 2 2 1 1
6 6 3 2 4 6 9 6 8 13 14 12 12 11 10 9 9 9 10 9 8 7 7 6 6 5 4 3 3 3 4 4 3 5 6 6 6 6 4 3 2 3 3 2 2 2 1 1 1
4 3 3 3 4 4 5 6 8 11 13 12 11 11 11 10 8 9 10 9 9 8 7 6 5 5 4 3 2 3 3 3 3 4 4 5 6 6 4 3 2 3 2 2 3 2 2 2 1
4 4 3 4 4 5 5 5 10 10 11 12 12 11 11 12 11 10 10 9 9 8 7 6 5 5 4 2 2 1 1 1 2 3 4 5 5 5 4 3 3 2 2 1 1 2 2 2 2
7 5 3 3 4 5 6 7 10 10 10 11 10 11 11 11 9 10 10 10 8 7 7 6 6 4 3 2 2 2 1 1 1 2 3 4 4 5 4 2 2 2 2 3 2 2 2 1 1
4 5 2 1 4 5 6 5 7 9 12 13 14 13 12 10 9 10 9 9 9 8 7 6 6 5 4 3 2 2 2 1 1 1 2 2 3 4 4 3 3 2 2 2 2 2 1 1 1
2 5 5 5 2 3 5 2 3 5 5 8 11 12 12 13 13 12 10 9 9 8 8 7 6 6 5 4 2 2 2 2 1 0 1 1 2 3 3 4 4 3 3 2 2 3 3 2 1
3 6 6 6 5 2 4 2 5 5 6 7 8 9 11 12 12 11 11 10 10 9 8 7 6 5 4 4 3 4 3 2 3 2 2 1 1 2 2 3 3 3 3 3 3 3 3 3 2
7 6 4 4 5 3 1 4 5 2 5 8 10 11 12 12 14 13 12 12 10 9 8 7 6 5 4 4 4 4 3 2 2 1 1 1 1 1 2 2 2 3 3 3 3 2 3 3 3
5 3 5 5 5 1 3 4 4 4 8 8 8 10 11 12 13 11 10 10 8 8 8 7 6 5 4 4 4 5 5 4 3 2 2 1 1 1 1 1 1 2 2 3 3 3 3 3 3
5 6 4 4 3 3 2 3 6 6 6 9 11 10 10 10 11 11 11 11 10 9 8 7 7 5 4 4 4 4 5 4 4 3 3 2 1 1 1 1 1 2 2 3 2 2 2 3 3
3 9 7 5 4 3 2 1 5 3 2 5 8 10 9 9 10 11 11 11 10 10 9 8 7 5 4 4 3 3 3 3 3 3 3 3 2 2 2 1 1 1 1 2 2 1 2 1 1
4 3 8 7 3 2 2 2 5 2 3 5 7 8 9 10 10 9 9 9 9 9 9 9 8 6 5 4 3 2 2 2 3 3 2 1 1 1 1 1 1 1 1 2 2 1 1 1 1
7 7 6 6 5 2 2 2 4 4 4 5 7 8 8 9 9 9 9 9 9 9 8 8 8 7 5 4 3 3 2 2 3 2 2 2 1 1 2 1 2 2 1 2 2 1 1 1 1
2 3 6 5 6 6 3 5 7 9 9 9 9 9 9 9 9 10 9 9 9 9 9 8 8 6 5 4 3 3 2 2 2 2 2 2 2 2 2 2 2 2 2 2 2 1 1 2 1
5 6 7 5 3 5 5 6 6 7 7 8 8 8 8 9 8 9 9 9 9 9 9 8 7 6 6 6 5 4 3 3 2 2 2 2 2 2 2 2 2 2 2 2 2 2 1 2 2
Wind_Direction
156 159 165 164 51 55 72 81 92 82 68 68 74 80 76 67 92 121 149 134 130 130 126 120 117 112 109 108 106 104 104 104 105 106 105 107 110 110 112 114 115 116 115 114 114 113 115 117 119
158 165 167 61 74 78 76 89 91 95 111 103 83 82 77 72 89 114 128 136 130 127 124 121 118 115 112 110 109 108 108 106 108 110 110 111 112 114 114 117 118 119 118 117 118 118 118 119 121
170 183 100 65 92 121 120 110 107 104 102 95 88 70 70 98 109 127 143 138 126 121 123 124 119 117 114 112 110 110 110 110 113 116 117 116 116 116 116 119 122 122 122 121 122 123 123 123 125
157 109 58 74 100 118 120 121 115 106 86 81 93 74 67 103 119 133 137 133 126 125 127 127 123 120 118 114 112 112 113 114 118 124 123 121 120 120 120 120 123 125 125 125 125 125 125 124 126
96 86 65 77 99 106 113 116 112 102 89 91 94 97 87 84 114 128 135 134 130 132 133 133 129 126 123 118 114 113 111 114 119 124 124 121 120 121 123 124 124 125 130 130 128 128 124 125 129
82 81 87 99 103 100 108 112 106 102 110 107 104 105 107 123 125 132 134 135 137 141 142 140 137 134 131 125 121 117 114 117 120 123 123 121 121 121 122 125 127 128 129 133 132 129 126 126 126
119 101 124 124 107 105 118 117 113 122 125 119 122 104 118 126 131 131 133 136 138 140 140 138 140 138 138 133 128 123 119 118 121 124 125 125 125 124 125 127 128 132 137 138 137 137 137 136 136
153 118 106 107 109 112 121 106 115 123 117 130 126 121 147 146 130 127 130 134 138 141 141 138 141 139 140 139 136 130 126 125 128 130 131 131 131 131 131 132 134 137 141 143 143 145 148 150 151
127 99 126 138 128 132 118 106 101 100 110 116 101 123 143 135 127 125 124 124 137 144 149 153 151 146 146 148 141 138 133 133 134 135 136 133 132 135 137 141 141 142 144 148 152 154 160 164 161
127 127 156 154 140 136 126 120 119 107 104 106 109 119 132 132 130 130 134 138 144 151 160 163 160 161 167 157 141 143 140 142 144 146 142 141 146 153 153 155 153 152 154 158 163 168 176 183 193
120 128 134 129 133 126 120 118 114 120 124 141 144 147 146 137 134 137 141 147 152 155 155 155 160 164 165 149 149 153 150 152 154 161 164 161 157 158 158 156 160 165 167 173 182 193 204 209 218
102 120 124 130 128 124 127 122 118 132 150 151 146 145 146 144 144 146 145 150 147 144 146 146 152 154 153 149 155 162 161 161 162 165 159 156 153 155 163 164 177 185 191 199 209 213 222 228 229
91 115 120 122 121 128 123 120 118 124 137 139 139 135 140 146 145 146 146 148 143 142 145 147 143 143 143 140 151 153 160 161 170 169 169 163 155 158 167 181 189 199 196 195 204 216 227 216 212
125 111 112 121 116 124 120 118 108 135 138 139 142 143 144 147 146 143 144 145 146 151 154 149 141 144 139 142 146 152 163 166 170 169 177 173 168 163 158 165 177 202 202 198 196 202 204 205 203
101 91 77 116 122 128 113 105 136 150 142 143 150 151 149 147 148 153 156 155 158 156 150 150 152 146 141 142 152 153 166 162 161 175 176 172 169 165 158 160 174 199 201 193 184 185 180 197 204
74 86 103 204 133 138 116 150 165 152 148 152 158 156 150 154 161 160 153 153 158 153 151 163 155 149 150 147 145 143 158 161 165 166 169 173 170 166 158 164 188 208 191 171 165 169 166 209 207
39 120 167 217 187 151 120 162 172 161 155 160 162 158 161 164 169 163 158 157 156 155 154 154 147 153 160 152 139 144 150 158 168 164 167 173 175 170 162 177 198 194 176 179 188 167 173 187 211
208 187 183 189 194 138 130 163 168 171 164 167 167 163 166 170 175 170 162 159 155 154 153 152 152 158 152 134 103 97 94 128 151 166 178 180 176 173 166 183 196 178 157 175 173 170 174 185 200
178 168 178 198 164 131 163 172 178 177 170 169 170 169 171 174 173 167 162 160 155 156 155 155 153 162 146 132 134 138 159 166 155 187 185 186 180 173 168 178 183 180 178 189 182 169 175 213 158
166 143 173 189 162 151 168 188 189 186 184 179 175 175 174 169 165 166 166 165 166 168 166 162 161 165 165 168 170 168 160 169 179 190 173 185 183 182 180 170 175 181 175 176 180 157 158 225 154
170 170 183 166 128 106 112 5 219 211 197 180 178 176 172 174 175 174 172 172 170 173 174 174 171 170 172 167 138 98 73 55 59 215 217 216 190 187 184 181 176 175 164 178 193 177 165 195 228
215 209 178 165 138 193 152 187 257 209 201 187 180 176 180 181 178 175 173 172 175 177 173 166 167 168 171 160 150 149 151 170 206 200 200 224 199 181 186 187 181 183 177 190 209 189 178 169 203
201 198 181 167 142 98 47 128 273 199 205 204 192 187 185 183 178 178 177 174 173 171 168 165 162 166 165 161 165 155 158 183 191 176 174 215 258 218 203 194 178 185 187 196 201 185 182 183 192
159 78 42 51 74 65 244 145 261 215 205 196 186 183 184 180 177 175 170 161 164 163 161 160 158 166 166 162 172 169 171 173 160 167 177 216 250 265 247 190 168 184 191 197 205 197 194 201 200
90 88 42 8 22 237 239 134 240 238 198 172 170 174 180 174 168 166 163 164 165 164 165 163 163 171 173 171 178 177 174 168 170 171 181 189 207 233 246 212 192 196 206 203 198 197 211 206 204
163 136 156 189 206 263 353 187 262 264 188 155 158 163 162 161 162 168 173 170 168 168 167 164 165 168 170 170 175 170 166 163 162 164 177 187 201 214 217 187 187 193 186 180 170 192 222 200 208
152 163 166 139 125 75 327 311 322 359 75 119 141 147 162 168 164 166 169 165 165 165 166 165 166 169 170 165 147 133 152 163 165 165 163 160 178 168 150 155 154 159 148 140 137 144 220 170 186
155 149 95 109 136 158 274 257 232 228 179 149 159 168 168 159 158 158 163 166 168 167 164 161 161 164 165 163 161 156 150 167 169 153 145 142 143 108 112 100 117 116 110 117 118 118 107 105 92
123 104 109 116 143 147 186 257 229 204 184 173 179 170 163 156 161 163 171 174 166 160 158 160 163 160 160 161 157 141 146 140 141 142 145 140 123 121 123 123 117 114 111 108 100 96 98 97 71
161 170 144 146 187 155 156 250 253 190 178 165 162 159 162 161 165 166 172 170 162 161 161 162 165 167 168 164 154 151 153 146 152 157 163 147 137 137 141 136 123 120 111 110 116 110 88 100 90
Height
1498 1498 1499 1500 1503 1513 1515 1508 1503 1503 1505 1506 1504 1505 1509 1512 1517 1527 1524 1522 1523 1523 1522 1522 1522 1522 1522 1522 1522 1522 1522 1523 1523 1524 1524 1525 1526 1526 1527 1528 1529 1530 1530 1531 1532 1533 1534 1536 1537
1498 1498 1501 1502 1511 1526 1521 1508 1505 1505 1507 1507 1508 1509 1511 1516 1519 1522 1523 1524 1524 1524 1524 1524 1524 1524 1524 1524 1524 1524 1524 1524 1524 1525 1526 1526 1527 1528 1528 1529 1530 1532 1532 1533 1534 1535 1536 1538 1539
1498 1500 1502 1505 1515 1522 1518 1508 1506 1506 1507 1507 1510 1512 1515 1519 1521 1523 1524 1525 1526 1526 1526 1525 1525 1525 1525 1525 1525 1525 1524 1523 1524 1525 1527 1528 1528 1529 1530 1530 1532 1533 1534 1535 1536 1537 1538 1539 1541
1499 1501 1504 1511 1515 1509 1506 1506 1505 1507 1509 1510 1511 1516 1519 1522 1522 1524 1525 1527 1527 1527 1527 1527 1527 1527 1527 1526 1526 1525 1524 1523 1522 1524 1527 1529 1530 1531 1532 1532 1533 1535 1536 1537 1538 1539 1540 1541 1542
1500 1502 1509 1517 1513 1506 1504 1504 1505 1507 1511 1514 1513 1519 1522 1524 1524 1525 1527 1528 1528 1528 1528 1528 1528 1528 1528 1528 1527 1526 1524 1522 1522 1524 1528 1530 1531 1532 1533 1534 1535 1536 1536 1538 1539 1540 1541 1543 1544
1501 1503 1518 1523 1513 1506 1505 1506 1507 1510 1515 1516 1517 1520 1525 1526 1526 1527 1528 1529 1530 1530 1530 1530 1530 1530 1530 1530 1529 1528 1526 1524 1524 1526 1530 1532 1533 1534 1535 1536 1536 1537 1538 1539 1541 1542 1543 1544 1546
1502 1507 1515 1515 1514 1511 1508 1507 1508 1512 1515 1517 1518 1522 1526 1528 1528 1529 1530 1530 1531 1531 1532 1532 1532 1532 1532 1532 1531 1531 1530 1529 1529 1531 1532 1534 1535 1536 1536 1537 1538 1539 1540 1541 1542 1543 1545 1546 1547
1499 1505 1513 1514 1514 1513 1508 1508 1510 1511 1516 1519 1519 1522 1526 1529 1529 1530 1531 1532 1532 1533 1533 1534 1534 1534 1534 1534 1533 1533 1533 1533 1533 1534 1535 1536 1537 1538 1538 1539 1540 1540 1541 1542 1543 1545 1546 1547 1548
1497 1508 1517 1513 1512 1511 1508 1509 1513 1514 1516 1519 1520 1522 1525 1528 1530 1531 1532 1533 1533 1534 1534 1535 1535 1535 1535 1535 1535 1535 1535 1535 1536 1536 1537 1538 1539 1539 1540 1541 1542 1542 1543 1544 1545 1546 1547 1548 1549
1495 1508 1508 1502 1503 1506 1508 1509 1513 1517 1518 1521 1523 1525 1527 1529 1530 1531 1532 1533 1533 1534 1535 1535 1536 1536 1536 1536 1537 1537 1537 1537 1538 1538 1539 1540 1540 1541 1541 1542 1543 1544 1545 1546 1546 1548 1549 1549 1550
1492 1500 1499 1499 1501 1504 1508 1510 1512 1516 1520 1521 1522 1525 1527 1529 1531 1531 1533 1533 1534 1534 1535 1536 1536 1537 1537 1538 1538 1539 1539 1539 1540 1540 1540 1541 1541 1542 1543 1544 1544 1545 1546 1547 1547 1548 1549 1550 1551
1493 1495 1496 1499 1501 1504 1507 1510 1513 1515 1518 1520 1522 1525 1527 1529 1530 1532 1533 1534 1534 1534 1535 1536 1537 1537 1538 1538 1539 1540 1540 1540 1541 1541 1541 1542 1542 1543 1544 1545 1545 1546 1547 1547 1548 1549 1550 1550 1551
1495 1498 1498 1499 1501 1503 1506 1510 1513 1516 1518 1521 1523 1526 1527 1529 1531 1532 1533 1533 1534 1535 1535 1536 1537 1537 1538 1539 1539 1540 1541 1541 1541 1542 1542 1543 1543 1544 1544 1545 1546 1546 1547 1548 1549 1549 1550 1550 1551
1497 1499 1500 1502 1503 1505 1508 1512 1514 1519 1520 1522 1524 1526 1528 1530 1531 1532 1533 1533 1534 1534 1535 1536 1537 1538 1539 1539 1539 1540 1541 1541 1541 1542 1543 1543 1544 1544 1544 1545 1546 1547 1547 1548 1549 1549 1549 1550 1550
1496 1501 1504 1505 1505 1508 1510 1517 1516 1518 1520 1523 1525 1526 1528 1529 1531 1531 1532 1533 1533 1534 1535 1536 1537 1538 1538 1539 1539 1540 1541 1542 1542 1542 1542 1543 1544 1544 1545 1545 1546 1546 1547 1548 1549 1549 1549 1549 1550
1500 1509 1517 1509 1506 1509 1514 1526 1518 1519 1520 1522 1524 1526 1527 1529 1530 1531 1532 1533 1533 1534 1535 1536 1537 1538 1538 1539 1540 1540 1541 1541 1542 1542 1542 1543 1543 1544 1545 1545 1546 1546 1547 1547 1548 1548 1548 1549 1549
1511 1521 1521 1513 1506 1509 1514 1522 1517 1518 1519 1521 1523 1525 1527 1528 1530 1531 1532 1533 1534 1534 1535 1536 1537 1538 1538 1539 1540 1540 1541 1541 1541 1542 1542 1543 1543 1544 1544 1544 1545 1546 1546 1546 1547 1547 1547 1548 1548
1520 1520 1517 1515 1507 1508 1514 1517 1515 1517 1518 1520 1522 1523 1525 1527 1529 1530 1532 1533 1534 1535 1536 1536 1536 1537 1538 1539 1539 1540 1540 1541 1541 1541 1542 1542 1542 1543 1543 1543 1544 1545 1545 1545 1546 1546 1546 1547 1547
1504 1509 1513 1510 1504 1509 1515 1517 1515 1515 1517 1519 1521 1523 1524 1526 1528 1530 1531 1533 1534 1535 1535 1536 1536 1537 1538 1538 1539 1539 1540 1540 1540 1541 1541 1541 1541 1542 1542 1542 1543 1543 1543 1544 1544 1545 1545 1545 1546
1501 1509 1511 1507 1503 1508 1515 1516 1514 1514 1515 1516 1519 1521 1522 1525 1527 1529 1530 1532 1533 1534 1535 1535 1536 1536 1537 1538 1538 1539 1539 1540 1540 1540 1540 1540 1540 1540 1541 1541 1541 1542 1542 1542 1543 1543 1543 1544 1544
1502 1507 1508 1510 1507 1508 1517 1525 1520 1515 1515 1516 1517 1519 1521 1523 1525 1527 1529 1531 1532 1533 1534 1535 1535 1536 1537 1538 1538 1538 1539 1539 1539 1539 1539 1539 1539 1539 1539 1539 1540 1540 1540 1541 1541 1541 1541 1542 1542
1506 1495 1497 1503 1515 1525 1520 1540 1524 1517 1515 1515 1517 1519 1520 1522 1524 1525 1527 1529 1531 1532 1534 1534 1535 1536 1537 1537 1538 1537 1537 1537 1538 1538 1538 1538 1538 1538 1538 1538 1538 1538 1538 1538 1539 1539 1539 1540 1540
1493 1488 1493 1499 1512 1524 1523 1535 1530 1518 1519 1515 1514 1515 1517 1519 1521 1523 1525 1527 1530 1532 1533 1534 1535 1535 1536 1536 1537 1537 1536 1536 1537 1537 1537 1537 1537 1537 1536 1536 1536 1536 1536 1536 1537 1537 1537 1537 1538
1483 1491 1499 1508 1520 1539 1528 1533 1533 1520 1514 1511 1511 1513 1514 1517 1519 1522 1525 1527 1529 1531 1532 1533 1534 1534 1535 1535 1535 1536 1536 1535 1536 1536 1536 1535 1535 1535 1535 1535 1534 1534 1534 1534 1534 1535 1535 1535 1535
1487 1510 1532 1537 1546 1543 1525 1529 1527 1507 1504 1504 1506 1509 1512 1515 1518 1521 1523 1525 1527 1529 1531 1532 1533 1533 1534 1534 1535 1535 1535 1535 1535 1535 1534 1534 1534 1533 1533 1533 1533 1533 1533 1532 1532 1532 1533 1533 1533
1490 1506 1533 1545 1549 1543 1529 1531 1519 1502 1501 1501 1503 1506 1509 1513 1515 1519 1522 1524 1526 1528 1529 1531 1532 1532 1533 1533 1533 1534 1534 1534 1534 1533 1533 1533 1533 1532 1532 1532 1531 1531 1531 1531 1531 1530 1530 1530 1530
1489 1500 1504 1525 1534 1543 1537 1526 1513 1502 1502 1503 1505 1507 1509 1510 1513 1516 1520 1523 1525 1527 1529 1530 1531 1532 1533 1533 1533 1533 1533 1533 1533 1533 1532 1532 1532 1531 1531 1530 1530 1530 1530 1529 1529 1529 1528 1528 1528
1479 1489 1509 1525 1542 1550 1540 1533 1527 1509 1506 1504 1505 1506 1507 1509 1511 1515 1518 1521 1524 1526 1528 1529 1530 1531 1532 1532 1532 1532 1532 1531 1531 1532 1531 1531 1531 1530 1530 1529 1529 1529 1528 1528 1528 1527 1527 1526 1526
1483 1490 1505 1521 1526 1543 1549 1537 1504 1501 1500 1501 1502 1504 1506 1508 1510 1513 1516 1519 1522 1524 1526 1528 1529 1530 1530 1530 1531 1531 1530 1530 1529 1530 1530 1530 1529 1529 1529 1528 1528 1527 1527 1527 1527 1526 1525 1525 1524
1476 1485 1499 1517 1524 1529 1537 1530 1493 1495 1496 1498 1501 1504 1505 1507 1510 1513 1515 1518 1520 1523 1524 1526 1527 1528 1529 1529 1529 1529 1530 1529 1528 1528 1528 1528 1528 1528 1527 1527 1527 1526 1526 1526 1525 1525 1524 1524 1523